Bahrain International Airport
OBBI : rendu visible

Aérodrome :











RETROUVEZ-NOUS SUR...

 
LOGIN :

S'inscrire | Disclaimer

   EN    FR    IT 

 









Légende :    VFR   VFR Marginal   IFR   IFR Intensif   IFR Très Intensif
Visi : 
Plafond : 
>= 8 km
>= 3000ft
5 à 8 km
1000 à 3000 ft
1500m à 5 km
500 à 1000 ft
800 à 1500m
200 à 500 ft
< 800m
< 200 ft
Symboles :   Orages  Brouillard  Fortes neiges  Fortes précipitations  Vent > 20 kt







- Altitude de l'aérodrome : 6 ft
- Code IATA : BAH


OBBI - Bahrain International

DERNIER METAR :
  • 190130Z 31018KT CAVOK 34/23 Q0998 NOSIG

METARs EXPIRÉS :
  • 190100Z 31017KT CAVOK 34/23 Q0998 NOSIG
  • 190030Z 30015KT CAVOK 34/22 Q0998 NOSIG
  • 190000Z 31016KT CAVOK 34/21 Q0998 NOSIG
  • 182330Z 30015KT CAVOK 35/21 Q0998 NOSIG
  • 182300Z 29012KT CAVOK 36/19 Q0998 NOSIG

TAF TAF OBBI
Valide du 19 à 00h jusqu'au 20 à 06h UTC


182300Z 1900/2006 33012KT CAVOK
TEMPO 1906/1915 33020G30KT
TEMPO 1914/1922 5000 DU NSC
FIR OBBB / Asie



MET'MAP, la Météo Aéronautique d'un coup d'oeil ! - Copyright ORBIFLY Décembre 2007 - Disclaimer

ORBIFLY MET'MAP TEAM :

Programmation & Développement : Alexandra Zaïnal
Conception & Développement : Baudouin d'Aumeries
Co-Programmation & Développement : Marc-Olivier Méhu
Soutien technique & logistique : Manuel Goepfert

Contact : metmap@orbifly.com




SOURCES & CREDITS :

   NOAA       Earth
Advisory